Notices

What's New in latest Release from April 7th, 2021:

- Updated Glossary, including Speed of Maximum Gust, and Total Hourly Precipitation

- Updated national and regional climate services offices contacts and prices information

- Addition of station inventory lists for 1981-2010, 1971-2000, and 1961-1990 Normals.

If you haven't already, please take our survey and provide feedback about our website: https://eccc.sondage-survey.ca/f/LanguageSelection.aspx?s=442ca660-fcf1-47c0-95a9-59707d6fd709

Hourly Data Report for September 05, 2017

VICTORIA UNIVERSITY CS
BRITISH COLUMBIA

48°27'25.200" N
123°18'16.600" W
60.10 m
1018598
71783
WYJ

Download Data

Hourly Data (September 2017)
Hourly Data Report for September 5, 2017
TIME
LST
Temp Definition
°C
Dew Point Definition
°C
Rel Hum Definition
%
Precip. Amount Definition
mm

Wind Dir Definition
10's deg

Wind Spd Definition
km/h
Visibility Definition
km
Stn Press Definition
kPa
Hmdx Definition


Wind Chill Definition


Weather Definition


00:00 19.8 14.4 71 0.0 29 2   100.52     LegendNANA
01:00 18.9 13.9 73 0.0 28 1   100.51     LegendNANA
02:00 18.6 14.2 75 0.0 1 3   100.52     LegendNANA
03:00 19.7 13.5 67 0.0 33 5   100.52     LegendNANA
04:00 22.1 12.7 55 0.0 36 9   100.50 25   LegendNANA
05:00 22.3 12.7 55 0.0 1 8   100.51 25   LegendNANA
06:00 22.6 12.4 53 0.0 35 6   100.53 25   LegendNANA
07:00 23.8 12.6 50 0.0 36 7   100.51 26   LegendNANA
08:00 24.6 12.7 48 0.0 33 7   100.55 27   LegendNANA
09:00 25.2 12.9 46 0.0 36 6   100.57 28   LegendNANA
10:00 25.9 12.8 44 0.0 33 6   100.57 29   LegendNANA
11:00 27.3 12.5 40 0.0 35 7   100.58 30   LegendNANA
12:00 27.6 12.1 38 0.0 34 6   100.61 30   LegendNANA
13:00 25.9 12.9 44 0.0 4 4   100.62 29   LegendNANA
14:00 24.8 13.4 49 0.0 35 6   100.48 28   LegendNANA
15:00 26.0 12.3 43 0.0 1 7   100.53 28   LegendNANA
16:00 24.2 13.5 51 0.0 13 2   100.53 27   LegendNANA
17:00 24.6 14.4 53 0.0 26 3   100.51 28   LegendNANA
18:00 23.8 14.9 57 0.0 26 2   100.48 28   LegendNANA
19:00 21.8 14.5 63 0.0 26 1   100.49 25   LegendNANA
20:00 20.8 13.9 65 0.0 0 1   100.52     LegendNANA
21:00 20.5 13.5 64 0.0 27 1   100.54     LegendNANA
22:00 19.7 13.6 68 0.0 33 2   100.55     LegendNANA
23:00 19.6 13.5 67 0.0 0 1   100.57     LegendNANA

Notes on Data Quality.

Legend

  • E = Estimated
  • M = Missing
  • NA = Not Available*
  • [empty] = Indicates an unobserved value
Date modified: